Bluefield, WV

7:01 PM EST on February 23, 2017 (GMT -0500)
Mercer County

Weather History for KBLF - January, 2012

Change the Weather History Date:

Monday, January 16, 2012

  Actual Average Record
Temperature  
Mean Temperature 39 °F 34 °F  
Max Temperature 50 °F 42 °F 60 °F (1990)
Min Temperature 27 °F 26 °F -13 °F (1972)
Degree Days  
Heating Degree Days 26 31  
Month to date heating degree days 475 496  
Since 1 July heating degree days 1967 2261  
Cooling Degree Days 0 0  
Month to date cooling degree days 0 0  
Year to date cooling degree days 0 0  
Moisture  
Dew Point 18 °F    
Average Humidity 46    
Maximum Humidity 63    
Minimum Humidity 29    
Precipitation  
Precipitation 0.01 in 0.09 in 0.57 in (2013)
Month to date precipitation 1.58 1.51  
Year to date precipitation 1.58 1.51  
Snow  
Snow 0.00 in - - ()
Month to date snowfall 5.4  
Since 1 July snowfall 8.6  
Snow Depth 0.00 in    
Sea Level Pressure  
Sea Level Pressure 30.31 in    
Wind  
Wind Speed 7 mph (SSE)    
Max Wind Speed 21 mph    
Max Gust Speed 36 mph    
Visibility 10 miles    
Events      
T = Trace of Precipitation, MM = Missing Value Source: NWS Daily Summary

Daily Weather History Graph

Daily Weather History Graph

Search for Another Location

Airport or City:

Trip Planner

Search our weather history database for the weather conditions in past years. The results will help you decide how hot, cold, wet, or windy it might be!

Date:

Astronomy

Jan. 16, 2012 Rise Set
Actual Time 7:37 AM EST 5:31 PM EST
Civil Twilight 7:09 AM EST 5:59 PM EST
Nautical Twilight 6:37 AM EST 6:32 PM EST
Astronomical Twilight 6:05 AM EST 7:03 PM EST
Moon 12:47 AM EST (1/16) 11:42 AM EST (1/16)
Length of Visible Light 10h 50m
Length of Day
9h 53m
Waning Gibbous, 46% of the Moon is Illuminated
Jan 16
Waning Gibbous
Jan 23
New
Jan 30
First Quarter
Feb 7
Full
Feb 14
Last Quarter

Hourly Weather History & Observations

Time (EST) Temp. Windchill Dew Point Humidity Pressure Visibility Wind Dir Wind Speed Gust Speed Precip Events Conditions
12:52 AM 28.0 °F - 15.1 °F 58% 30.42 in 10.0 mi Calm Calm - N/A   Clear
1:52 AM 30.9 °F 27.5 °F 15.1 °F 52% 30.40 in 10.0 mi SSE 3.5 mph - N/A   Clear
2:52 AM 30.0 °F 24.1 °F 15.1 °F 54% 30.42 in 10.0 mi ESE 5.8 mph - N/A   Clear
3:52 AM 30.0 °F 25.2 °F 15.1 °F 54% 30.41 in 10.0 mi ESE 4.6 mph - N/A   Clear
4:52 AM 30.9 °F 27.5 °F 14.0 °F 50% 30.40 in 10.0 mi SSE 3.5 mph - N/A   Clear
5:52 AM 32.0 °F - 14.0 °F 48% 30.40 in 10.0 mi Calm Calm - N/A   Clear
6:52 AM 30.9 °F 24.3 °F 15.1 °F 52% 30.40 in 10.0 mi SE 6.9 mph - N/A   Clear
7:52 AM 32.0 °F 27.5 °F 14.0 °F 48% 30.40 in 10.0 mi ESE 4.6 mph - N/A   Clear
8:52 AM 34.0 °F 29.8 °F 15.1 °F 46% 30.40 in 10.0 mi SE 4.6 mph - N/A   Clear
9:52 AM 36.0 °F 32.1 °F 16.0 °F 44% 30.39 in 10.0 mi SE 4.6 mph - N/A   Partly Cloudy
10:52 AM 39.9 °F 36.7 °F 17.1 °F 40% 30.37 in 10.0 mi SE 4.6 mph - N/A   Overcast
11:52 AM 44.1 °F 41.5 °F 17.1 °F 34% 30.35 in 10.0 mi Variable 4.6 mph - N/A   Scattered Clouds
12:52 PM 48.9 °F - 17.1 °F 28% 30.31 in 10.0 mi SW 8.1 mph - N/A   Partly Cloudy
1:52 PM 46.0 °F 42.5 °F 19.0 °F 34% 30.27 in 10.0 mi South 6.9 mph - N/A   Overcast
2:52 PM 46.0 °F 40.6 °F 21.0 °F 37% 30.26 in 10.0 mi South 11.5 mph - N/A   Overcast
3:52 PM 44.1 °F 38.1 °F 21.0 °F 40% 30.24 in 10.0 mi SSE 11.5 mph - 0.00 in   Overcast
4:52 PM 43.0 °F 38.2 °F 21.9 °F 43% 30.24 in 10.0 mi South 8.1 mph - 0.00 in   Overcast
5:52 PM 43.0 °F 37.7 °F 24.1 °F 47% 30.23 in 10.0 mi South 9.2 mph - 0.01 in   Overcast
6:52 PM 45.0 °F 41.2 °F 21.9 °F 40% 30.22 in 10.0 mi South 6.9 mph 18.4 mph N/A   Overcast
7:52 PM 45.0 °F 40.6 °F 21.9 °F 40% 30.21 in 10.0 mi South 8.1 mph 16.1 mph N/A   Overcast
8:52 PM 48.0 °F - 21.9 °F 36% 30.18 in 10.0 mi Variable 5.8 mph - N/A   Overcast
9:52 PM 48.0 °F - 21.9 °F 36% 30.17 in 10.0 mi Variable 4.6 mph - N/A   Overcast
10:52 PM 48.9 °F - 21.0 °F 33% 30.14 in 10.0 mi WSW 11.5 mph 23.0 mph N/A   Mostly Cloudy
11:52 PM 50.0 °F - 21.0 °F 32% 30.13 in 10.0 mi WSW 17.3 mph 24.2 mph N/A   Mostly Cloudy